Regional Weather Roundup
Issued by NWS Mt. Holly, NJ

Current Version | Previous Version | Text Only | Print | Product List | Glossary On
Versions: 1 2 3 4 5 6 7 8 9 10 11 12 13 14 15 16 17 18 19 20 21 22 23 24 25 26 27 28 29 30 31 32 33 34 35 36 37 38 39 40 41 42 43 44 45 46 47 48 49 50
000
ASUS41 KPHI 181012
RWRPHI

REGIONAL WEATHER ROUNDUP
NATIONAL WEATHER SERVICE MOUNT HOLLY NJ
500 AM EST SUN NOV 18 2018

NOTE:  "FAIR" INDICATES FEW OR NO CLOUDS BELOW 12,000 FEET WITH NO
SIGNIFICANT WEATHER AND/OR OBSTRUCTIONS TO VISIBILITY.

 * = STATION DOES NOT REPORT PRECIPITATION (E.G. RAIN, SNOW, ETC.)
        OR FOG.

NJZ015>026-181100-
SOUTHERN NEW JERSEY

CITY           SKY/WX    TMP DP  RH WIND       PRES   REMARKS
POMONA         FAIR      30  28  92 CALM      30.35S
WILDWOOD*      FAIR      30  29  96 CALM      30.36R
MILLVILLE      FAIR      27  26  96 CALM      30.35R FOG
WRIGHTSTOWN    CLEAR     30  28  93 CALM        N/A
MOUNT HOLLY      N/A     30  27  88 CALM      30.35R
TRENTON        MOCLDY    32  29  88 NW3       30.34R

$$
NJZ001>014-181100-
NORTHERN NEW JERSEY

CITY           SKY/WX    TMP DP  RH WIND       PRES   REMARKS
SUSSEX         MOCLDY    35  26  69 CALM      30.32R
ANDOVER*         N/A     34  26  72 CALM      30.32R
MORRISTOWN     CLOUDY    39  27  60 CALM      30.34R
NEWARK         CLOUDY    40  25  55 N8        30.34R WCI  34
TETERBORO      CLOUDY    40  25  55 N3        30.33S
CALDWELL       CLOUDY    38  25  59 CALM      30.34S
SOMERVILLE     CLOUDY    33  31  92 CALM      30.33R
ALLAIRE*       FAIR      33  29  85 W3        30.36R
TOMS RIVER*    FAIR      26  25  96 CALM      30.36R

$$
PAZ043-044-047-054-055-060>062-066>071-181100-
EASTERN PENNSYLVANIA

CITY           SKY/WX    TMP DP  RH WIND       PRES   REMARKS
PHILADELPHIA   FAIR      34  29  82 CALM      30.36R
NORTH PHILA    FAIR      34  28  79 CALM      30.36R
BLUE BELL*     FAIR      30  30 100 CALM      30.36R
DOYLESTOWN     FAIR      31  28  89 CALM      30.33R
QUAKERTOWN*    CLEAR     30  30 100 CALM      30.34R
PERKASIE*      CLOUDY    32  32 100 CALM      30.34R
POTTSTOWN      FAIR      30  29  96 CALM      30.35R
LANCASTER      MOCLDY    35  31  85 SE3       30.33R
COATESVILLE    CLOUDY    34  30  86 CALM      30.34R
READING        FAIR      33  33 100 CALM      30.33R
ALLENTOWN      FAIR      37  31  78 SW3       30.34R
MOUNT POCONO   CLOUDY    29  24  82 NW5       30.26R WCI  24
LEHIGHTON      CLOUDY    32  32 100 CALM      30.34R
WILKES BARRE   MOCLDY    33  26  75 CALM      30.30R

$$
DEZALL-MDZ008-012-015-019-020-181100-
DELAWARE AND EASTERN MARYLAND

CITY           SKY/WX    TMP DP  RH WIND       PRES   REMARKS
WILMINGTON     FAIR      32  28  85 CALM      30.35S
DOVER          FAIR      34  31  87 CALM      30.34S
GEORGETOWN     FAIR      33  29  85 CALM      30.36R
PATUXENT       FAIR      34  32  92 CALM      30.34
OCEAN CITY     FAIR      33  31  92 NW3       30.35R
WALLOPS ISLAND FAIR      37  31  78 N8        30.34F WCI  31
SALISBURY      FAIR      30  29  96 CALM      30.35R

$$
PAZ001-021-NYZ056-072-MDZ011-DCZ001-181100-
OTHER NEARBY LOCATIONS

CITY           SKY/WX    TMP DP  RH WIND       PRES   REMARKS
HARRISBURG     MOCLDY    35  31  85 CALM      30.33R
WILLIAMSPORT   CLOUDY    34  32  92 CALM      30.31S
BINGHAMTON     CLOUDY    28  22  78 CALM      30.26S
NEW YORK CITY  CLOUDY    40  24  53 MISG      30.36R
BALTIMORE      FAIR      29  28  96 CALM      30.35R
WASHINGTON DC  MOCLDY    37  32  82 CALM      30.36S

$$




USA.gov is the U.S. government's official web portal to all federal, state and local government web resources and services.